"Pseudo-MPEC" for P10PM5a

Created 2019 Jul 12 21:07:12 UT using Find_Orb

Click here for an explanation of pseudo-MPECs

 
 Astrometry: 
     P10PM5a  C2019 07 10%9$s;;3JQM4+9p26_69xI$+?a#2(N9-g=[\2n-cvun5EZK*J'C#*F51
     P10PM5a  C2019 07 10.Jce\AstrometryEnO,[FgrX\%uXTiGy#redacted;L]MTZP^\9bF51
     P10PM5a  C2019 07 10yXDDLMQbsZQT9Lfmo3lL`On/*,FwoE0mD\AuxnmXFclickHqLhB0F51
     P10PM5a  C2019 07 10n9Hd#-p#*?HngFQbAOVibVk3)YRK5sQ0Bog)@jg_l\93B4S#hereF51
     P10PM5a  C2019 07 11X/nll(xq=:kIJg7p^[]xN?$g,!!#TYfor[='M0/%['@LPD9n6/SqF51
     P10PM5a  C2019 07 11GQEf/fs0hv!16(9l[s^.I]!=sepj2Gjx1VKAx!:y3P(LPtD1m]spF51
     P10PM5a  C2019 07 11@u39`^]r_MJp*P8(QR(\dD28iw_LqUFFh_,LBXfJ(\T2t6d\b\[NF51
     P10PM5a ^C2019 07 11.59876623 29 01.846-15 46 30.87   ~7BJb 21.17GVNEOCP568
     P10PM5a ^C2019 07 11.59995523 29 01.955-15 46 30.92   ~7BJb 21.20GVNEOCP568
     P10PM5a  C2019 07 11tJYPw4PwW5)]1;I[C,iVZt;x0W[k`Uofiy=WO:hwP8Oe55UEJ[s?F51
     P10PM5a ^C2019 07 11.60114023 29 02.066-15 46 30.98   ~7BJb 21.18GVNEOCP568
     P10PM5a KC2019 07 123*vnu6$kmj?$t3m80sBH.^l=]RW[ea1Z6H8'$_LxcF108v)[D`i\H21
     P10PM5a KC2019 07 12R`@H8Q)#8n7NpO0u46MR6^bNZF/Y,Ro^8i`*@i.explanation27H21
     P10PM5a KC2019 07 12ya.OK]=a0owHX%]X5dAe4UbO+bB#*/NA5+vfT.k7fZ-*Vr,jMHbWH21
     P10PM5a ^C2019 07 12.53779623 30 32.697-15 47 23.22   ~7CHb 20.99GVNEOCP568
     P10PM5a ^C2019 07 12.53897823 30 32.806-15 47 23.30   ~7CHb 20.98GVNEOCP568
     P10PM5a ^C2019 07 12.54016323 30 32.914-15 47 23.38   ~7CHb 20.94GVNEOCP568

Station data:
(568) Mauna Kea  (N19.826116 W155.472200)  US/Hawaii.
(F51) Pan-STARRS 1, Haleakala  (N20.707235 W156.255910)  US/Hawaii.
   Observers N. Primak, A. Schultz, S. Watters, J. Thiel, T. Goggia. Measurer
   PS1 Science Consortium. 1.8-m Ritchey-Chrétien + CCD.
(H21) Astronomical Research Observatory, Westfield  (N39.483057 W87.968270)
   US/Illinois. 0.76-m f/3.0 astrograph + CCD.

Orbital elements:  P10PM5a
   Perihelion 2019 Oct 2.187146 +/- 14.2 TT =  4:29:29 (JD 2458758.687146)
Epoch 2019 Jul 12.0 TT = JDT 2458676.5   Earth MOID: 0.5215   AutoNEOCP
M 336.72268304 +/- 9                (J2000 ecliptic)
n   0.28322332 +/- 0.0866           Peri.  283.59984 +/- 12
a   2.29641320 +/- 0.468            Node    79.68287 +/- 4.4
e   0.3460850 +/- 0.102             Incl.    7.27241 +/- 0.6
P   3.48                   H 19.3   G  0.15   U 11.1  
q 1.50165894 +/- 0.0924    Q 3.09116746 +/- 1.09
From 17 observations 2019 July 10-12 (47.2 hr); mean residual 0".55
Residuals in arcseconds: 
190710 F51  .08+  .02+    190711 F51  .33-  .09+    190712 H21  2.8+  .65+    
190710 F51  .02+  .05-    190711 568  .10-  .04-    190712 H21  .64-  .38-    
190710 F51  .08+  .07-    190711 568  .12-  .03-    190712 568  .58-  .04-    
190710 F51  .01+  .02-    190711 F51  .05-  .06+    190712 568  .58-  .04-    
190711 F51  .09+  .16+    190711 568  .11-  .03-    190712 568  .60-  .04-    
190711 F51  .24-  .02+    190712 H21  .30-  .26-    

Ephemerides (geocentric):
Date (UTC) HH   RA              Dec         delta   r     elong  mag " sig PA
---- -- -- --  -------------   -----------  ------ ------ -----  --- ---- ---
2019 07 12 21  23 31 04.806   -15 47 38.71  .85364 1.6388 122.2 21.3 .474 138
2019 07 12 22  23 31 08.795   -15 47 41.42  .85328 1.6387 122.2 21.3 .458 133
2019 07 12 23  23 31 12.783   -15 47 44.15  .85291 1.6386 122.2 21.3 .445 127
2019 07 13 00  23 31 16.769   -15 47 46.90  .85255 1.6384 122.2 21.3 .435 122
2019 07 13 01  23 31 20.753   -15 47 49.67  .85218 1.6383 122.2 21.3 .430 116
2019 07 13 02  23 31 24.736   -15 47 52.46  .85182 1.6382 122.3 21.3 .430 109
2019 07 13 03  23 31 28.717   -15 47 55.27  .85145 1.6381 122.3 21.3 .435 103
2019 07 13 04  23 31 32.696   -15 47 58.09  .85109 1.6379 122.3 21.3 .447  96
2019 07 13 05  23 31 36.674   -15 48 00.94  .85073 1.6378 122.3 21.3 .464  90
2019 07 13 06  23 31 40.650   -15 48 03.80  .85036 1.6377 122.4 21.3 .487  84
2019 07 13 07  23 31 44.624   -15 48 06.69  .85000 1.6375 122.4 21.3 .515  78
2019 07 13 08  23 31 48.597   -15 48 09.59  .84964 1.6374 122.4 21.3 .549  73
2019 07 13 09  23 31 52.568   -15 48 12.52  .84927 1.6373 122.4 21.3 .587  69
2019 07 13 10  23 31 56.537   -15 48 15.46  .84891 1.6372 122.5 21.3 .630  65
2019 07 13 11  23 32 00.505   -15 48 18.42  .84855 1.6370 122.5 21.3 .676  61
2019 07 13 12  23 32 04.471   -15 48 21.41  .84818 1.6369 122.5 21.3 .726  58
2019 07 13 13  23 32 08.435   -15 48 24.41  .84782 1.6368 122.5 21.3 .779  55
2019 07 13 14  23 32 12.398   -15 48 27.43  .84746 1.6366 122.6 21.3 .835  53
2019 07 13 15  23 32 16.358   -15 48 30.47  .84710 1.6365 122.6 21.3 .894  50
2019 07 13 16  23 32 20.318   -15 48 33.53  .84673 1.6364 122.6 21.3 .955  48
2019 07 13 17  23 32 24.275   -15 48 36.61  .84637 1.6363 122.6 21.3 1.02  46
2019 07 13 18  23 32 28.231   -15 48 39.71  .84601 1.6361 122.6 21.3 1.09  45
2019 07 13 19  23 32 32.185   -15 48 42.82  .84565 1.6360 122.7 21.3 1.15  43
2019 07 13 20  23 32 36.137   -15 48 45.96  .84529 1.6359 122.7 21.3 1.22  42
2019 07 13 21  23 32 40.088   -15 48 49.12  .84493 1.6358 122.7 21.3 1.30  41
2019 07 13 22  23 32 44.037   -15 48 52.30  .84457 1.6356 122.7 21.3 1.37  40
2019 07 13 23  23 32 47.984   -15 48 55.49  .84421 1.6355 122.8 21.3 1.45  39
2019 07 14 00  23 32 51.929   -15 48 58.71  .84384 1.6354 122.8 21.3 1.53  38
2019 07 14 01  23 32 55.873   -15 49 01.94  .84348 1.6352 122.8 21.3 1.61  37
2019 07 14 02  23 32 59.815   -15 49 05.20  .84312 1.6351 122.8 21.3 1.69  36
2019 07 14 03  23 33 03.755   -15 49 08.47  .84276 1.6350 122.9 21.3 1.77  35
2019 07 14 04  23 33 07.694   -15 49 11.76  .84240 1.6349 122.9 21.3 1.86  35
2019 07 14 05  23 33 11.631   -15 49 15.08  .84204 1.6347 122.9 21.3 1.94  34
2019 07 14 06  23 33 15.566   -15 49 18.41  .84168 1.6346 122.9 21.3 2.03  33
2019 07 14 07  23 33 19.499   -15 49 21.76  .84133 1.6345 123.0 21.3 2.12  33
2019 07 14 08  23 33 23.431   -15 49 25.14  .84097 1.6343 123.0 21.3 2.22  32
2019 07 14 09  23 33 27.361   -15 49 28.53  .84061 1.6342 123.0 21.3 2.31  32
2019 07 14 10  23 33 31.289   -15 49 31.94  .84025 1.6341 123.0 21.3 2.41  31
2019 07 14 11  23 33 35.215   -15 49 35.37  .83989 1.6340 123.0 21.3 2.50  31
2019 07 14 12  23 33 39.140   -15 49 38.82  .83953 1.6338 123.1 21.3 2.60  31
2019 07 14 13  23 33 43.063   -15 49 42.29  .83917 1.6337 123.1 21.3 2.71  30
2019 07 14 14  23 33 46.984   -15 49 45.78  .83881 1.6336 123.1 21.3 2.81  30
2019 07 14 15  23 33 50.904   -15 49 49.29  .83846 1.6335 123.1 21.3 2.91  29
2019 07 14 16  23 33 54.821   -15 49 52.82  .83810 1.6333 123.2 21.3 3.02  29
2019 07 14 17  23 33 58.737   -15 49 56.37  .83774 1.6332 123.2 21.3 3.13  29
2019 07 14 18  23 34 02.651   -15 49 59.93  .83738 1.6331 123.2 21.3 3.24  29
2019 07 14 19  23 34 06.564   -15 50 03.52  .83703 1.6330 123.2 21.3 3.35  28
2019 07 14 20  23 34 10.474   -15 50 07.13  .83667 1.6328 123.3 21.3 3.46  28